FW3234 Weather Reports


time (UTC)temp
C
wind
direction
speed
KPH
gust
KPH
rain 1hr
cm
rain 24hr
cm
rain mn
cm
humidity
%
barometer
mb
20200531080245 10 166 0.0 20.9 0.00 0.03 0.00 91 1004.5
20200531074605 10 237 4.8 17.7 0.00 0.03 0.00 91 1004.1
20200531073051 10 175 9.7 19.3 0.00 0.03 0.00 92 1003.5
20200531071548 10 191 9.7 19.3 0.00 0.03 0.00 92 1003.7
20200531070034 10 171 8.0 22.5 0.00 0.03 0.00 91 1003.4
20200531064607 10 181 8.0 14.5 0.00 0.03 0.03 91 1003.2
20200531063056 11 116 11.3 17.7 0.00 0.03 0.03 91 1002.6
20200531061608 11 329 0.0 14.5 0.00 0.03 0.03 91 1003.0
20200531060054 11 184 3.2 12.9 0.00 0.03 0.03 91 1002.6
20200531054522 11 265 1.6 11.3 0.00 0.03 0.03 91 1002.8
20200531053047 12 214 3.2 19.3 0.00 0.03 0.03 92 1002.4
20200531051520 12 235 3.2 30.6 0.00 0.03 0.03 92 1001.4
20200531050028 12 214 3.2 19.3 0.00 0.03 0.03 91 1001.0
20200531044518 13 204 11.3 27.4 0.00 0.03 0.03 90 1001.3
20200531043006 15 139 8.0 24.1 0.00 0.03 0.03 89 1000.2
20200531041502 17 164 4.8 14.5 0.00 0.03 0.03 85 1000.2
20200531040148 17 252 3.2 14.5 0.00 0.03 0.03 79 1000.2
20200531034744 17 148 1.6 6.4 0.00 0.03 0.03 78 999.1
20200531033335 18 309 0.0 4.8 0.00 0.03 0.03 80 998.4
20200531031640 18 299 0.0 6.4 0.00 0.03 0.03 78 999.0
20200531030346 19 264 1.6 9.7 0.03 0.03 0.03 79 998.5
20200531024629 20 282 3.2 12.9 0.03 0.03 0.03 77 998.1
20200531023158 20 251 1.6 8.0 0.03 0.03 0.03 81 998.1
20200531021626 22 255 0.0 17.7 0.03 0.03 0.03 75 997.0
20200531020152 23 98 0.0 1.6 0.00 0.00 0.00 69 994.0
20200531013244 25 36 0.0 8.0 0.00 0.00 0.00 64 993.6
20200531011838 26 345 1.6 6.4 0.00 0.00 0.00 62 993.4
20200531010132 26 12 0.0 6.4 0.00 0.00 0.00 61 994.1
20200531004623 27 68 0.0 6.4 0.00 0.00 0.00 58 994.5
20200531003055 27 8 1.6 9.7 0.00 0.00 0.00 56 995.1
20200531001748 27 31 1.6 11.3 0.00 0.00 0.00 53 995.2
20200531000124 27 2 1.6 11.3 0.00 0.00 0.00 53 995.4
20200530234618 28 51 3.2 9.7 0.00 0.00 0.00 50 995.7
20200530233050 28 308 4.8 14.5 0.00 0.00 0.00 50 995.9
20200530231555 28 84 4.8 16.1 0.00 0.00 0.00 50 996.1
20200530230051 27 179 3.2 17.7 0.00 0.00 0.00 51 996.4
20200530224611 26 9 1.6 14.5 0.00 0.00 0.00 55 997.2
20200530223036 27 63 4.8 12.9 0.00 0.00 0.00 52 997.7
20200530221612 26 55 4.8 19.3 0.00 0.00 0.00 54 998.1
20200530220125 26 38 4.8 16.1 0.00 0.00 0.00 53 998.4
20200530214540 25 102 4.8 16.1 0.00 0.00 0.00 55 998.6
20200530213100 25 56 4.8 14.5 0.00 0.00 0.00 54 998.7
20200530211516 26 72 4.8 14.5 0.00 0.00 0.00 53 998.9
20200530210019 25 73 3.2 17.7 0.00 0.00 0.00 54 999.3
20200530204533 25 20 4.8 11.3 0.00 0.00 0.00 53 1000.2
20200530203030 24 56 3.2 12.9 0.00 0.00 0.00 53 1001.2
20200530201502 23 78 1.6 9.7 0.00 0.00 0.00 55 1001.1
20200530200146 23 344 1.6 9.7 0.00 0.00 0.00 55 1001.8
20200530194646 24 55 4.8 17.7 0.00 0.00 0.00 55 1001.3
20200530193120 23 18 6.4 25.7 0.00 0.00 0.00 56 1000.3
20200530191755 22 339 9.7 20.9 0.00 0.00 0.00 61 1000.5
20200530190122 20 44 3.2 14.5 0.00 0.00 0.00 67 1002.4
20200530184713 20 99 0.0 9.7 0.00 0.00 0.00 65 1004.5
20200530183057 21 150 0.0 3.2 0.00 0.00 0.00 68 1005.0
20200530181559 21 113 0.0 1.6 0.00 0.00 0.00 65 1003.9
20200530180040 20 37 0.0 6.4 0.00 0.00 0.00 64 1003.7
20200530174548 20 110 1.6 4.8 0.00 0.00 0.00 62 1003.9
20200530173118 20 17 0.0 16.1 0.00 0.00 0.00 63 1003.8
20200530171647 20 42 0.0 12.9 0.00 0.00 0.00 66 1004.2
20200530170102 18 262 1.6 9.7 0.00 0.00 0.00 70 1004.4
20200530163024 17 327 0.0 0.0 0.00 0.00 0.00 78 1006.0
20200530161521 17 300 0.0 1.6 0.00 0.00 0.00 76 1006.0
20200530160010 16 117 0.0 1.6 0.00 0.00 0.00 80 1006.0
20200530154518 16 7 0.0 1.6 0.00 0.00 0.00 79 1006.2
20200530153014 16 177 0.0 0.0 0.00 0.00 0.00 81 1006.1
20200530151502 16 174 0.0 3.2 0.00 0.00 0.00 77 1005.6
20200530150002 17 203 0.0 3.2 0.00 0.00 0.00 72 1005.4
20200530144745 17 96 0.0 1.6 0.00 0.00 0.00 74 1004.7
20200530143229 17 25 0.0 6.4 0.00 0.00 0.00 73 1004.8
20200530141736 17 70 0.0 3.2 0.00 0.00 0.00 73 1004.8
20200530140145 17 73 0.0 4.8 0.00 0.00 0.00 73 1004.7
20200530134631 17 77 1.6 4.8 0.00 0.00 0.00 71 1004.5
20200530133139 17 53 0.0 3.2 0.00 0.00 0.00 73 1004.6
20200530131634 17 80 0.0 4.8 0.00 0.00 0.00 73 1004.8
20200530130103 16 84 0.0 3.2 0.00 0.00 0.00 74 1004.7
20200530124637 17 120 0.0 0.0 0.00 0.00 0.00 73 1005.1
20200530123105 17 13 0.0 9.7 0.00 0.00 0.00 72 1005.0
20200530121656 16 108 0.0 3.2 0.00 0.00 0.00 75 1005.1
20200530120102 17 20 0.0 11.3 0.00 0.00 0.00 75 1005.3
20200530114611 16 70 1.6 6.4 0.00 0.00 0.00 80 1005.2
20200530113209 16 131 0.0 0.0 0.00 0.00 0.00 81 1005.4
20200530111602 16 148 0.0 0.0 0.00 0.00 0.00 83 1005.2
20200530110119 16 87 0.0 3.2 0.00 0.00 0.00 84 1005.3
20200530104627 16 68 0.0 6.4 0.00 0.00 0.00 84 1005.5
20200530103103 16 60 0.0 0.0 0.00 0.00 0.00 83 1005.8
20200530101544 16 91 0.0 0.0 0.00 0.00 0.00 84 1005.8
20200530100045 16 139 0.0 0.0 0.00 0.00 0.00 85 1006.0
20200530094626 16 139 0.0 0.0 0.00 0.00 0.00 85 1006.2
20200530093032 16 140 0.0 0.0 0.00 0.00 0.00 85 1006.3
20200530091627 16 151 0.0 0.0 0.00 0.00 0.00 86 1006.3
20200530090116 16 150 0.0 0.0 0.00 0.00 0.00 86 1006.5
20200530084555 16 150 0.0 0.0 0.00 0.00 0.00 86 1006.8
20200530083102 15 150 0.0 0.0 0.00 0.00 0.00 87 1006.9
20200530081642 16 150 0.0 0.0 0.00 0.00 0.00 86 1006.9